STARLINK-1159, 45057

Orbit data source: Space-Track

STARLINK-1159, 45057 is a payload satellite owned by SpaceX/Seattle (US) in LEO that was launched on Wed, 29 Jan 2020 UTC via an FALCON 9 launch vehicle from the Air Force Eastern Test Range (AFETR). Payload-class satellites include a variety of spacecraft equipped with specific instruments for various scientific and technological missions. These include communications satellites like Starlink; space stations such as the ISS; scientific satellites like the Hubble; Earth observation satellites from companies like Planet Labs, Umbra, and HawkEye 360; GPS; miniature CubeSats for education and research; and military/defense satellites.

Loading next visibility...
Identifier
45057, 2020-006P
Orbit
LEO
Country
Flag of USUS
Related business
Manufacturer
SpaceX/Seattle
Mission
Partially operational Commercial Communications
Bus & Motor
STARLINK, Unknown motor
Mass
260 kg wet, ~248 kg dry
Launch date (UTC)
2020-01-29 (6 years ago)
Launch vehicle
FALCON 9
Launch site
Air Force Eastern Test Range (AFETR)
Object type
Payload
Rocket body
Debris
Shape & HBR
Box + 1 Pan, 10.1 m
Radar Cross Section
13.562 m², Large (>1 m²)

Expand to show TLE details & history
Last TLE update: 10 hours ago

TLE from 10 hours ago
0 STARLINK-1159
1 45057U 20006P   26062.81450463  .00154063  00000-0  80352-3 0  9996
2 45057  53.0457 264.2934 0004245 127.2994 232.8414 15.79937555336266
Epoch: 2026-03-03T19:32Z
TLE epoch observation values (Epoch: 2026-03-03T19:32:53.200Z)
Latitude
-0.00002°
Longitude
169.48356°
Altitude
333.245 km
Speed
7.709 km/s
True Right ascension
17h 37m 10s
True Declination
0° 00' 00"
Sunlit
Object was in daylight at epoch
Visualization orbit readout
Latitude
Unknown
Longitude
Unknown
Altitude
Unknown
Speed
Unknown
Apparent Right ascension
Unknown
Apparent Declination
Unknown
Sunlit
N/A
Visualization observer readout
Local Sidereal Time
09:14:49
Azimuth
Unknown
Elevation
Unknown
Doppler factor
Unknown
Orbital elements
Apogee altitude
333.746 km
Perigee altitude
328.05 km
Semi-major axis
6,709.035 km
Eccentricity
0.00042
Inclination
53.0457°
RAAN
264.2934°
Arg. of periapsis
127.2994°
True anomaly
232.80264°
Mean anomaly
232.8414°
Eccentric anomaly
232.82202°
Mean motion
3.9496 °/min
Orbital period
91.15 mins
BSTAR
0.00080352
Loading maneuver chart data...
Computing Atmospheric mass density...
Loading historical data...
Loading historical data...
Loading historical data...
Loading historical data...
Loading historical data...
Loading historical data...
Loading historical data...

Documentation

Showing up to 5 results
|